Probability
4 2 0 0 0 0 0 0 0 0 0 0 0 0 0 0 0 0 0 1 2 1 1 2 3 2 3 5 7 8 6 5 6 7 8 6 3 2 2 3 2 2 3 4 4 3 3 3 3
2 1 0 0 0 0 0 0 0 0 0 0 0 0 0 0 0 0 1 2 3 2 1 2 4 5 5 6 8 7 6 6 6 7 7 6 4 3 3 3 2 2 3 5 4 3 3 3 3
1 0 0 0 0 0 0 0 0 0 0 0 0 0 0 0 0 1 2 3 4 3 1 2 5 7 7 7 7 7 6 7 7 7 7 6 5 4 4 3 1 1 4 5 4 3 3 3 2
2 1 0 0 0 0 0 0 0 0 0 0 0 0 0 0 0 1 3 4 5 4 2 2 4 6 7 6 6 6 6 6 6 6 6 6 5 4 3 2 1 1 3 4 4 3 3 2 1
5 2 0 0 0 0 0 0 0 0 0 0 0 0 0 0 1 3 5 5 5 4 3 3 4 5 6 6 6 6 5 5 4 4 4 5 5 4 3 3 1 0 1 2 3 3 3 2 2
6 3 1 0 0 0 0 0 0 1 0 0 0 0 0 1 2 3 5 7 6 5 4 3 4 6 6 7 7 7 6 5 3 3 3 5 5 4 4 3 1 1 2 2 3 3 3 2 3
7 4 2 1 0 0 0 0 1 1 0 0 0 0 0 1 2 3 5 6 6 5 4 3 5 7 7 7 7 7 8 6 4 3 4 4 4 3 3 2 1 1 2 2 2 2 3 2 3
7 4 2 1 0 0 0 1 1 0 0 0 0 0 0 0 1 3 4 4 5 5 5 4 5 6 6 6 7 7 7 5 4 4 4 4 3 2 2 1 1 2 2 2 1 1 2 2 2
5 4 2 1 0 0 0 1 1 0 0 0 0 0 0 0 1 2 3 3 3 4 4 4 4 4 4 5 6 7 5 3 2 3 3 2 1 1 1 0 1 1 3 3 3 2 1 1 1
5 4 3 1 0 0 0 0 0 0 1 1 0 0 0 0 1 2 3 3 3 2 3 3 4 4 4 5 5 5 4 1 1 1 1 1 0 0 0 0 1 1 2 4 3 2 1 0 0
7 5 3 1 0 0 0 0 0 0 0 1 1 2 2 1 0 1 2 2 1 1 1 2 4 5 5 5 4 2 1 0 0 0 0 0 0 0 0 0 0 0 1 1 1 1 1 0 0
5 3 1 0 0 0 0 0 0 0 0 1 2 4 4 3 1 0 1 1 0 0 1 2 4 5 5 4 2 1 0 0 0 0 0 0 0 0 0 0 0 0 0 0 0 0 0 0 0
1 1 0 0 0 0 0 1 2 1 1 1 2 4 5 4 2 1 0 0 1 1 1 2 3 4 4 2 1 0 0 0 0 0 0 0 0 0 0 0 0 0 0 0 0 0 0 0 0
0 0 0 0 0 0 1 3 3 2 1 1 2 3 4 4 3 2 2 1 1 0 1 2 4 5 4 2 0 0 0 0 0 0 0 0 0 0 0 0 0 0 0 0 0 0 0 0 1
0 0 0 0 0 0 1 2 3 2 1 1 1 1 3 4 4 3 3 2 1 1 2 3 4 5 4 2 2 2 1 0 0 0 0 0 0 0 0 0 0 0 0 0 0 1 1 1 2
0 0 0 0 0 0 0 1 1 2 2 2 1 1 2 4 4 4 5 4 3 3 5 5 5 5 4 3 3 3 2 1 0 0 0 0 0 0 0 0 0 0 0 0 1 2 2 3 3
0 0 0 0 0 0 0 0 0 2 3 4 2 1 2 3 4 5 7 8 6 5 5 5 5 4 3 2 2 3 2 1 0 0 0 0 0 0 0 0 0 0 0 1 2 3 3 3 3
0 0 0 0 0 0 0 0 0 1 3 4 3 2 2 3 4 7 9 10 8 5 4 4 4 3 2 1 1 2 2 2 1 0 0 0 0 0 0 0 0 0 1 2 3 3 3 3 3
0 0 0 0 0 0 0 0 0 1 2 3 3 3 2 2 4 8 11 11 10 7 5 5 4 2 1 0 1 1 1 1 1 1 0 0 0 0 0 0 0 1 2 3 3 3 3 3 3
0 0 0 0 0 0 0 0 0 0 1 3 4 4 3 3 5 10 13 14 13 9 6 6 4 3 1 0 1 1 0 0 1 1 0 0 0 0 0 0 1 2 3 3 3 3 3 3 3
0 0 0 0 0 0 0 0 0 0 1 3 5 5 4 6 8 11 13 16 16 12 9 7 6 4 2 1 0 0 0 0 0 0 0 0 0 0 0 0 1 2 2 2 2 2 2 2 2
0 0 0 0 0 0 0 0 0 1 2 3 5 6 6 8 11 13 14 16 17 15 12 9 7 5 3 2 1 0 0 0 0 0 0 0 0 0 0 0 1 1 1 1 1 1 1 1 1
0 0 0 0 0 0 0 0 0 2 3 3 5 6 6 7 11 14 14 13 16 18 16 12 9 6 4 3 1 0 0 0 0 0 0 0 0 0 0 1 1 0 0 0 1 1 1 0 0
0 0 0 0 0 0 0 0 0 1 2 4 4 5 6 7 8 11 13 13 17 21 20 15 11 7 5 3 1 0 0 0 0 0 0 0 0 0 2 3 3 1 0 1 2 3 3 2 1
0 0 0 0 0 0 0 0 0 0 1 3 4 6 8 8 8 10 13 15 19 24 24 19 14 10 8 5 2 0 0 0 0 0 1 1 2 2 3 4 4 3 2 2 3 4 4 4 3
0 0 0 0 0 0 0 0 0 0 1 2 4 6 8 8 10 13 15 17 21 24 26 24 20 15 12 9 7 4 2 1 1 2 2 3 3 3 3 4 5 5 4 4 4 4 6 6 6
0 0 0 0 0 0 0 0 0 0 1 2 4 6 7 9 14 17 17 18 20 22 25 27 25 20 16 15 14 10 7 6 5 5 5 4 3 3 4 5 7 8 8 7 6 6 7 8 7
0 0 0 0 0 0 0 0 0 1 1 2 5 8 11 14 18 20 18 16 18 21 23 26 27 24 20 19 18 16 13 13 12 11 8 5 3 4 6 7 9 11 10 10 10 10 9 9 8
0 0 0 0 0 0 0 0 1 2 2 3 7 11 15 19 21 21 17 14 14 18 21 25 27 26 23 21 21 20 19 18 18 15 10 6 5 6 8 10 10 11 10 11 13 13 12 12 11
0 0 0 0 0 0 0 0 1 2 3 5 9 13 16 20 23 21 17 12 11 15 20 23 27 28 25 23 23 22 20 20 20 15 11 9 7 7 10 11 9 8 9 12 15 16 15 15 14
Wind_Speed
10 6 3 1 2 3 3 3 5 6 6 6 9 10 8 6 4 5 2 6 6 4 3 7 11 11 12 13 13 13 13 13 13 14 14 15 15 15 16 17 18 18 19 20 20 19 19 19 18
7 5 2 1 3 3 2 4 7 8 10 10 10 10 8 7 6 7 4 5 5 4 4 8 13 12 13 13 13 13 13 13 14 14 14 14 15 16 17 17 18 18 19 19 19 18 18 18 17
6 3 1 2 1 3 4 5 8 10 10 8 6 7 6 5 6 5 5 7 6 4 4 9 14 13 13 13 13 13 14 14 14 14 14 14 15 16 16 17 17 18 18 18 18 17 17 17 16
3 2 2 2 1 2 5 6 9 10 8 7 8 7 5 5 5 6 9 9 8 5 6 10 15 14 13 13 13 13 14 14 14 14 14 15 15 16 16 17 16 17 17 17 17 16 16 15 14
1 2 3 2 2 3 5 9 10 9 6 9 10 8 5 4 9 11 10 10 9 6 5 9 14 13 13 13 13 13 14 14 14 15 14 15 15 15 16 16 16 16 16 15 15 14 14 13 13
2 2 2 2 4 5 6 10 12 12 12 11 10 8 3 5 9 9 9 9 8 8 6 7 13 13 13 13 13 13 13 14 14 14 15 15 14 14 15 15 15 15 14 13 13 12 12 11 11
3 2 2 3 5 6 7 8 10 11 10 8 9 7 4 4 8 9 8 8 8 7 6 5 6 8 12 13 13 12 12 13 13 13 13 13 13 13 13 13 13 13 13 12 12 11 10 9 9
2 2 1 1 5 6 7 7 9 11 9 10 7 7 6 6 8 8 8 8 7 6 6 5 4 4 5 6 11 12 12 12 12 12 12 12 12 12 11 11 11 12 12 11 10 10 9 8 7
2 2 2 3 6 5 8 9 8 8 10 7 6 7 9 10 10 9 8 6 6 6 4 4 5 4 4 4 8 9 10 10 9 8 10 9 4 5 5 8 10 10 10 10 9 8 7 6 5
4 3 6 4 6 8 9 11 9 8 10 9 10 10 11 11 9 9 9 8 7 6 5 4 4 4 4 5 4 3 3 4 3 2 3 3 3 3 5 7 9 9 9 8 7 6 5 3 2
5 6 4 3 7 10 9 9 8 12 8 12 15 14 12 11 8 8 8 8 8 8 7 6 5 5 4 3 3 2 1 2 2 3 3 3 2 2 2 2 3 3 4 3 3 2 1 1 2
3 3 4 5 7 9 9 8 8 8 10 14 16 15 12 11 9 9 8 7 7 7 7 7 6 5 4 4 3 3 2 2 2 3 4 3 2 2 2 2 1 1 1 1 1 1 1 1 2
2 1 3 5 7 8 9 10 9 8 13 15 15 14 12 11 8 7 7 7 7 6 6 6 6 5 4 4 3 4 3 3 3 3 3 4 3 3 3 2 2 2 2 2 2 2 2 2 2
1 1 2 4 5 6 10 9 8 10 15 15 14 12 12 12 10 8 7 6 7 7 7 6 6 6 5 3 3 3 3 3 3 3 4 4 4 4 3 2 2 2 2 2 2 3 2 2 2
2 3 3 2 4 5 9 5 8 15 15 14 13 12 12 10 10 10 10 8 8 8 7 6 6 5 5 4 4 4 3 3 3 3 4 4 4 4 3 3 2 1 2 2 2 2 2 2 2
5 5 2 2 2 4 8 5 8 13 15 13 12 12 11 10 10 10 10 8 8 8 7 7 7 5 4 4 3 3 3 3 3 3 3 4 4 4 3 2 2 2 2 2 2 2 2 1 1
4 2 2 4 2 3 4 5 9 11 14 13 12 11 11 9 9 9 10 10 10 9 8 7 6 6 4 4 3 3 3 3 3 3 3 3 4 4 3 2 2 2 2 1 2 2 2 2 1
3 2 3 3 2 2 2 4 8 11 12 13 12 11 11 12 11 10 10 10 9 9 8 7 6 6 5 3 2 2 2 2 2 3 3 4 3 4 4 3 3 2 2 2 2 2 1 1 2
6 5 4 5 3 3 4 5 8 10 10 10 10 11 11 12 10 10 11 10 9 8 8 7 7 6 4 3 2 2 2 2 2 2 4 4 4 4 4 3 3 3 3 3 3 2 2 1 1
5 4 4 3 2 3 3 4 6 9 12 12 13 13 12 10 9 10 10 10 10 10 9 8 8 7 5 4 3 3 2 2 2 2 3 4 4 4 4 4 3 3 2 2 2 2 1 1 2
6 7 7 6 2 2 3 2 3 5 7 9 11 11 12 14 14 13 12 11 10 10 10 9 8 7 6 5 3 2 2 1 1 1 1 2 4 4 3 4 3 3 3 3 3 3 3 2 1
7 7 8 7 5 1 3 2 6 6 6 9 10 10 13 14 13 13 13 12 13 12 10 9 8 8 6 6 5 5 3 3 3 2 2 2 3 3 3 3 3 3 3 3 3 3 3 3 2
7 5 5 5 5 2 1 2 7 3 6 9 11 12 14 15 16 16 15 15 13 12 11 9 8 7 6 6 6 5 3 3 2 2 2 2 2 2 3 3 3 3 3 3 3 3 3 3 3
4 3 3 4 5 1 4 3 6 5 10 9 9 11 13 14 14 14 13 12 11 11 10 10 9 8 7 7 6 6 5 4 3 3 3 2 1 1 2 3 3 3 3 3 3 3 3 3 3
3 6 3 4 4 5 4 2 8 8 8 10 11 12 12 13 13 13 13 13 12 13 12 11 10 9 8 8 7 7 6 6 5 4 4 3 2 2 3 3 3 3 3 3 3 3 3 3 3
4 9 8 5 4 5 3 4 8 7 6 7 8 9 10 12 12 14 15 14 14 14 13 12 11 10 9 9 7 6 6 4 3 4 4 4 3 3 3 3 3 3 3 3 2 2 2 2 2
4 4 8 8 3 1 4 5 7 0 3 4 6 7 9 10 12 13 13 13 14 14 13 13 12 10 9 9 7 6 6 5 4 4 3 3 3 3 3 3 3 3 3 3 2 2 2 2 2
6 6 6 6 5 2 4 4 4 3 3 4 6 8 7 8 8 10 11 12 12 12 11 11 12 11 10 9 8 7 6 5 5 4 4 3 3 3 3 2 3 3 2 2 2 2 2 2 1
1 2 4 5 6 7 2 6 5 6 6 7 7 8 8 8 8 8 8 9 10 10 10 10 10 9 9 9 8 7 6 5 5 4 4 4 4 4 3 3 3 3 3 2 2 2 2 2 1
4 4 6 5 3 5 4 7 5 4 4 5 7 7 7 7 6 6 7 7 8 9 10 10 9 9 9 9 7 7 6 5 5 5 5 4 4 4 4 3 3 3 3 3 3 3 2 2 2
Wind_Direction
159 155 156 151 45 46 77 94 104 88 73 70 78 83 80 63 88 121 141 127 127 128 131 122 112 106 101 98 96 94 93 93 95 95 97 101 103 105 110 113 116 118 120 121 123 124 125 126 127
157 164 166 61 70 74 78 107 95 94 120 108 83 80 75 68 77 106 115 133 121 123 136 130 118 112 106 102 100 98 96 95 96 98 99 102 106 107 110 114 117 119 121 122 124 126 128 129 130
163 170 106 62 100 145 136 121 107 102 108 99 89 67 69 95 101 115 140 133 109 101 115 129 121 115 110 106 102 100 99 98 98 99 101 105 108 108 109 113 116 118 120 122 124 126 128 129 131
143 98 52 67 119 174 144 141 122 108 90 82 93 76 68 91 112 126 133 125 111 101 107 122 119 116 112 108 105 104 103 101 101 102 103 107 109 110 111 113 117 119 121 122 124 126 128 129 131
91 82 52 54 96 117 124 127 119 106 94 89 93 96 83 81 112 124 130 127 123 116 109 120 122 120 115 111 108 107 107 106 105 106 106 108 111 112 115 117 119 120 122 123 125 128 129 131 133
80 78 77 115 124 115 113 116 112 105 108 105 104 105 102 121 124 132 131 131 132 129 124 124 126 125 120 116 113 113 111 110 109 109 110 109 109 111 119 121 123 124 124 125 128 130 133 134 136
112 96 182 160 130 123 125 119 117 121 121 122 123 106 125 140 142 141 131 128 131 129 125 122 128 127 126 122 118 119 116 114 115 116 115 114 114 115 120 123 127 128 129 130 131 134 135 134 133
149 101 267 166 129 132 134 117 126 129 119 125 123 126 156 168 145 134 125 123 126 130 130 128 125 121 125 127 127 125 123 123 124 124 123 123 122 122 124 129 134 136 135 135 138 140 141 142 142
125 78 230 183 137 139 133 117 117 107 115 120 112 131 151 146 135 128 123 119 128 134 142 139 137 134 133 138 138 133 131 131 130 127 127 123 114 118 125 140 147 147 145 145 147 148 152 150 141
151 180 215 190 148 143 140 132 133 117 112 106 108 119 132 137 136 136 141 144 149 152 157 155 152 150 152 152 137 138 140 139 132 127 127 119 127 137 139 146 154 153 152 152 158 165 165 151 131
175 196 204 150 135 139 141 137 124 125 132 144 144 147 145 144 143 146 150 151 157 162 163 169 167 162 161 146 147 154 147 147 150 151 146 139 130 133 127 129 148 147 152 150 163 166 151 149 154
169 211 182 164 140 140 148 139 125 139 155 154 149 150 149 150 152 157 155 153 148 149 154 162 162 157 156 147 154 158 150 154 156 157 155 143 135 138 142 143 156 152 153 162 165 153 159 163 174
106 124 117 144 137 139 133 134 129 133 140 144 145 148 154 157 157 163 158 155 146 146 150 150 147 148 146 143 160 155 160 160 158 153 156 150 142 142 147 156 156 160 156 156 156 157 157 164 167
194 100 105 126 110 112 121 129 120 141 145 148 151 156 161 162 162 159 156 154 150 153 152 146 141 146 143 141 150 155 156 151 143 144 149 146 144 146 146 150 154 166 172 168 158 156 160 166 153
33 57 43 90 104 123 108 108 145 154 153 155 161 162 163 165 164 166 168 162 158 157 153 150 145 138 136 138 144 147 153 147 148 152 150 148 145 146 146 147 155 166 163 147 129 124 128 137 136
24 39 16 296 123 136 111 163 174 159 157 161 167 167 167 171 170 169 166 160 152 149 149 154 148 138 137 134 132 136 149 152 157 155 149 152 154 153 146 149 159 153 128 123 124 122 114 123 135
35 42 296 295 203 143 118 179 182 170 164 169 172 170 169 172 171 169 163 160 155 153 151 151 141 144 143 138 132 132 138 150 159 154 154 160 158 156 151 159 161 145 123 130 152 126 132 139 154
220 201 242 252 245 120 130 190 178 182 174 174 175 171 169 174 177 171 165 163 158 156 153 150 147 153 147 130 112 103 115 144 152 157 166 167 162 159 156 162 165 154 141 144 141 139 128 156 184
196 192 224 234 217 136 180 196 182 180 180 180 179 174 176 180 176 167 166 163 154 153 153 151 152 159 147 135 134 132 159 171 167 174 172 169 167 162 157 160 157 160 162 174 166 146 134 157 143
214 206 217 250 214 147 186 223 199 182 189 185 183 181 179 172 169 171 167 165 164 164 163 159 162 165 162 159 156 157 162 173 177 183 173 176 173 169 167 165 172 176 166 168 164 148 142 192 158
240 204 198 194 180 98 108 307 242 207 194 190 184 183 180 177 176 177 174 172 169 170 171 169 168 167 168 159 142 134 102 70 81 151 188 190 178 175 174 176 178 180 174 185 190 170 159 183 228
242 217 180 169 138 220 146 221 270 212 200 193 187 183 182 182 177 178 176 175 178 179 173 167 168 168 171 163 155 155 160 172 191 186 183 186 183 181 180 175 176 175 172 183 198 179 170 162 193
223 203 165 152 142 105 35 147 273 221 210 206 195 191 187 184 180 180 180 180 180 177 173 171 169 171 172 170 169 167 173 180 177 160 156 173 188 190 182 176 175 181 183 188 188 178 177 171 176
201 117 60 56 75 75 243 180 264 219 213 206 197 196 193 187 184 182 180 175 175 175 174 173 173 178 177 175 175 176 179 179 171 174 176 187 192 201 200 189 188 191 190 191 188 184 181 185 184
111 101 48 3 11 256 254 196 247 234 209 194 191 193 192 187 181 177 177 176 176 176 178 177 177 182 183 182 184 184 184 182 183 186 187 185 185 198 213 202 199 199 197 193 182 176 187 187 187
203 140 154 183 213 269 299 234 254 239 204 182 177 180 180 183 182 180 181 179 178 178 178 177 180 182 183 183 188 186 185 185 189 188 181 186 194 205 201 198 201 199 195 194 182 182 198 186 197
178 177 165 138 166 199 275 285 305 340 140 143 155 160 173 180 181 181 180 178 178 179 181 180 181 182 185 186 184 183 186 187 184 180 179 187 200 202 197 198 201 198 192 188 173 184 203 188 199
167 162 104 118 150 214 286 280 256 259 178 154 155 163 168 174 175 179 180 180 180 180 179 178 180 185 186 185 186 188 191 188 182 177 188 193 201 198 183 186 185 181 181 177 171 191 201 187 214
28 92 108 122 147 152 217 268 244 212 185 168 169 163 159 161 167 173 178 176 171 168 171 174 181 182 183 185 187 186 183 184 182 185 198 199 198 192 187 184 181 181 182 182 176 190 180 192 232
156 158 137 143 202 160 164 257 276 185 172 156 154 147 148 151 158 166 164 158 160 166 173 176 177 179 184 183 181 183 180 178 184 197 203 196 195 195 188 182 182 188 191 187 184 201 204 196 216